Flag for Norway Weather past 2 weeks in Egersund, Norway

Now
57 °F

Partly sunny.


Feels Like: 57 °F
Forecast: 52 / 61 °F
Wind: 3 mph from West

Location: Ualand-Bjuland

Current Time: Sep 4, 2015 at 11:20:06 PM

Latest Report: Sep 4, 2015 at 8:00 PM


Visibility: 47 mi

Pressure: 29.75 "Hg

Humidity: 73%

Dew point: 49 °F

Location of EgersundLocation

Historic Weather in Egersund — Graph

°F

Egersund temperature yesterday

Maximum temperature yesterday: 59 °F (at 1:00 PM)
Minimum temperature yesterday: 54 °F (at 2:00 AM)
Average temperature yesterday: 56 °F

Past Weeks' High & Low Weather Summary

 TemperatureHumidityPressure
High74 °F (Aug 23, 2:00 PM)99% (Aug 30, 6:00 AM)30.29 "Hg (Aug 30, 6:00 AM)
Low43 °F (Aug 31, 7:00 AM)40% (Aug 22, 5:00 PM)29.41 "Hg (Sep 2, 10:00 AM)
Average59 °F81%29.87 "Hg
* Reported Aug 20 8:00 PM — Sep 4 8:00 PM, Egersund, Weather by CustomWeather, © 2015

Note: Actual official high and low records may vary slightly from our data, if they occured in-between our weather recording intervals... More about our weather records

Advertising

Egersund weather history for previous 24 hours

 ConditionsComfort  
Time TempWeatherWind HumidityBarometerVisibility
8:00 PM
Fri, Sep 4
57 °FPartly sunny.3 mph73%29.75 "Hg47 mi
7:00 PM60 °FCool.1 mph67%29.75 "HgN/A
5:00 PM60 °FCool.1 mph69%29.78 "HgN/A
4:00 PM60 °FCool.2 mph69%29.80 "HgN/A
3:00 PM62 °FCool.1 mph68%29.82 "HgN/A
2:00 PM58 °FSprinkles. Overcast.3 mph79%29.83 "Hg37 mi
1:00 PM60 °FCool.1 mph80%29.83 "HgN/A
12:00 PM60 °FCool.1 mph71%29.84 "HgN/A
11:00 AM58 °FCool.1 mph78%29.85 "HgN/A
10:00 AM56 °FCool.1 mph79%29.86 "HgN/A
9:00 AM55 °FCool.1 mph83%29.86 "HgN/A
8:00 AM50 °FPartly sunny.2 mph94%29.85 "Hg47 mi
7:00 AM50 °FCool.1 mph93%29.86 "HgN/A
6:00 AM51 °FCool.1 mph88%29.85 "HgN/A
5:00 AM53 °FCool.2 mph84%29.85 "HgN/A
4:00 AM53 °FCool.2 mph84%29.85 "HgN/A
3:00 AM51 °FCool.2 mph89%29.85 "HgN/A
2:00 AM51 °FCool.2 mph88%29.85 "HgN/A
1:00 AM55 °FCool.2 mph75%29.85 "HgN/A
12:00 AM54 °FCool.2 mph77%29.84 "HgN/A
Weather by CustomWeather, © 2015

See weather overviewHow to use our weather pages